FW6402 Weather Reports


Display with metric or nautical units.
time (UTC)temp
F
wind
direction
speed
MPH
gust
MPH
rain 1hr
in
rain 24hr
in
rain mn
in
humidity
%
barometer
mb
20260505050845 63 161 1.0 3.0 0.00 0.00 0.00 73 1014.3
20260505050342 63 267 1.0 3.0 0.00 0.00 0.00 73 1014.3
20260505041345 66 234 1.0 4.0 0.00 0.00 0.00 72 1013.2
20260505040843 66 241 0.0 2.0 0.00 0.00 0.00 73 1013.1
20260505040359 66 267 0.0 3.0 0.00 0.00 0.00 74 1013.1
20260505035837 66 258 1.0 4.0 0.00 0.00 0.00 74 1013.0
20260505035334 66 271 0.0 4.0 0.00 0.00 0.00 74 1012.9
20260505034847 67 44 0.0 2.0 0.00 0.00 0.00 74 1012.9
20260505034414 67 250 0.0 4.0 0.00 0.00 0.00 74 1012.7
20260505033849 67 262 1.0 4.0 0.00 0.00 0.00 74 1012.6
20260505033345 68 245 0.0 0.0 0.00 0.00 0.00 74 1012.6
20260505032843 68 249 0.0 0.0 0.00 0.00 0.00 73 1012.5
20260505032341 69 238 0.0 0.0 0.00 0.00 0.00 72 1012.4
20260505031900 69 238 0.0 0.0 0.00 0.00 0.00 71 1012.3
20260505031336 69 232 0.0 0.0 0.00 0.00 0.00 72 1012.3
20260505030832 70 233 0.0 0.0 0.00 0.00 0.00 70 1012.3
20260505030415 69 233 0.0 0.0 0.00 0.00 0.00 70 1012.2
20260505025829 70 233 0.0 1.0 0.00 0.00 0.00 71 1012.2
20260505025346 70 232 0.0 1.0 0.00 0.00 0.00 69 1012.1
20260505024842 70 220 0.0 2.0 0.00 0.00 0.00 69 1012.1
20260505024339 70 250 0.0 2.0 0.00 0.00 0.00 68 1012.1
20260505023846 71 237 0.0 0.0 0.00 0.00 0.00 68 1012.1
20260505023343 71 239 0.0 0.0 0.00 0.00 0.00 68 1012.1
20260505022840 71 239 0.0 0.0 0.00 0.00 0.00 68 1012.1
20260505022338 71 226 0.0 0.0 0.00 0.00 0.00 67 1012.1
20260505021830 72 241 0.0 0.0 0.00 0.00 0.00 66 1012.1
20260505021352 72 257 0.0 2.0 0.00 0.00 0.00 66 1012.0
20260505020849 72 240 0.0 2.0 0.00 0.00 0.00 65 1012.1
20260505020346 73 127 0.0 2.0 0.00 0.00 0.00 65 1012.1
20260505015843 73 253 1.0 2.0 0.00 0.00 0.00 64 1012.1
20260505015336 74 246 0.0 2.0 0.00 0.00 0.00 63 1012.1
20260505014833 74 243 0.0 2.0 0.00 0.00 0.00 62 1012.1
20260505014349 74 236 0.0 2.0 0.00 0.00 0.00 62 1012.1
20260505013854 75 263 0.0 2.0 0.00 0.00 0.00 61 1012.2
20260505013330 75 266 0.0 2.0 0.00 0.00 0.00 60 1012.2
20260505012841 76 252 0.0 4.0 0.00 0.00 0.00 60 1012.3
20260505012337 75 196 0.0 4.0 0.00 0.00 0.00 61 1012.3
20260505011903 75 255 0.0 4.0 0.00 0.00 0.00 60 1012.3
20260505011338 75 263 1.0 4.0 0.00 0.00 0.00 62 1012.3
20260505010830 74 279 2.0 4.0 0.00 0.00 0.00 61 1012.3
20260505010356 75 241 1.0 4.0 0.00 0.00 0.00 61 1012.4
20260505005832 75 280 2.0 4.0 0.00 0.00 0.00 61 1012.4
20260505005330 74 236 1.0 4.0 0.00 0.00 0.00 62 1012.4
20260505004846 75 256 2.0 5.0 0.00 0.00 0.00 61 1012.4
20260505004344 74 216 1.0 5.0 0.00 0.00 0.00 61 1012.5
20260505003839 75 304 2.0 3.0 0.00 0.00 0.00 60 1012.5
20260505003337 75 207 0.0 3.0 0.00 0.00 0.00 61 1012.5
20260505002833 74 253 2.0 5.0 0.00 0.00 0.00 62 1012.5
20260505002345 74 276 2.0 5.0 0.00 0.00 0.00 62 1012.6
20260505001844 74 214 2.0 5.0 0.00 0.00 0.00 61 1012.6
20260505001341 74 237 2.0 5.0 0.00 0.00 0.00 61 1012.6
20260505000838 74 203 2.0 5.0 0.00 0.00 0.00 61 1012.6
20260505000330 74 212 2.0 6.0 0.00 0.00 0.00 61 1012.6
20260504235857 74 243 3.0 6.0 0.00 0.00 0.00 60 1012.6
20260504235351 74 240 1.0 6.0 0.00 0.00 0.00 60 1012.6
20260504234849 75 256 3.0 4.0 0.00 0.00 0.00 59 1012.6
20260504234406 75 231 2.0 5.0 0.00 0.00 0.00 60 1012.6
20260504233840 74 221 2.0 6.0 0.00 0.00 0.00 61 1012.7
20260504233406 74 245 1.0 6.0 0.00 0.00 0.00 60 1012.7
20260504232900 75 250 1.0 5.0 0.00 0.00 0.00 59 1012.7
20260504232339 75 119 2.0 5.0 0.00 0.00 0.00 59 1012.9
20260504231835 74 164 1.0 5.0 0.00 0.00 0.00 59 1012.9
20260504231329 74 224 1.0 5.0 0.00 0.00 0.00 61 1013.0
20260504230852 73 245 2.0 5.0 0.00 0.00 0.00 61 1013.0
20260504230409 73 207 2.0 7.0 0.00 0.00 0.00 60 1013.2
20260504225913 73 140 2.0 7.0 0.00 0.00 0.00 61 1013.2
20260504225407 74 297 2.0 5.0 0.00 0.00 0.00 61 1013.3
20260504224844 73 226 1.0 6.0 0.00 0.00 0.00 62 1013.3
20260504224340 72 60 3.0 7.0 0.00 0.00 0.00 61 1013.5
20260504223858 73 265 2.0 7.0 0.00 0.00 0.00 60 1013.4
20260504223344 73 274 3.0 6.0 0.00 0.00 0.00 60 1013.5
20260504222852 74 51 1.0 5.0 0.00 0.00 0.00 59 1013.5
20260504222349 74 212 1.0 5.0 0.00 0.00 0.00 59 1013.5
20260504221843 73 158 0.0 4.0 0.00 0.00 0.00 60 1013.7
20260504221341 72 265 2.0 5.0 0.00 0.00 0.00 61 1013.7
20260504220901 72 141 1.0 7.0 0.00 0.00 0.00 62 1013.8
20260504220339 71 276 2.0 7.0 0.00 0.00 0.00 61 1014.0
20260504215836 72 245 2.0 5.0 0.00 0.00 0.00 61 1014.0
20260504215333 72 231 1.0 4.0 0.00 0.00 0.00 62 1014.0
20260504214830 72 290 1.0 4.0 0.00 0.00 0.00 61 1014.1
20260504214412 71 229 3.0 5.0 0.00 0.00 0.00 62 1014.2
20260504213909 71 87 2.0 5.0 0.00 0.00 0.00 62 1014.2
20260504213345 71 285 1.0 4.0 0.00 0.00 0.00 63 1014.2
20260504212850 70 205 1.0 6.0 0.00 0.00 0.00 65 1014.4
20260504212346 69 196 3.0 6.0 0.00 0.00 0.00 66 1014.4
20260504211845 68 262 1.0 4.0 0.00 0.00 0.00 67 1014.5
20260504211401 68 221 2.0 7.0 0.00 0.00 0.00 66 1014.6
20260504210903 69 296 4.0 7.0 0.00 0.00 0.00 65 1014.7
20260504210338 68 221 1.0 5.0 0.00 0.00 0.00 67 1014.8
20260504205835 68 236 2.0 7.0 0.00 0.00 0.00 66 1014.9
20260504205355 68 220 2.0 5.0 0.00 0.00 0.00 67 1014.9
20260504204849 67 278 3.0 6.0 0.00 0.00 0.00 66 1015.0
20260504204345 67 280 2.0 5.0 0.00 0.00 0.00 68 1015.0
20260504203843 67 242 2.0 7.0 0.00 0.00 0.00 68 1015.0
20260504203337 66 145 1.0 7.0 0.00 0.00 0.00 69 1015.1
20260504202857 66 150 2.0 5.0 0.00 0.00 0.00 68 1015.1
20260504202334 66 127 2.0 9.0 0.00 0.00 0.00 71 1015.2
20260504201831 65 286 3.0 9.0 0.00 0.00 0.00 70 1015.3
20260504201344 66 226 3.0 8.0 0.00 0.00 0.00 68 1015.2
20260504200839 66 48 3.0 8.0 0.00 0.00 0.00 68 1015.3
20260504200337 66 290 2.0 5.0 0.00 0.00 0.00 69 1015.3
20260504195834 66 264 2.0 6.0 0.00 0.00 0.00 69 1015.4
20260504195333 66 281 1.0 6.0 0.00 0.00 0.00 70 1015.3
20260504194830 65 235 2.0 7.0 0.00 0.00 0.00 71 1015.4
20260504194346 65 212 3.0 6.0 0.00 0.00 0.00 70 1015.5
20260504193844 64 269 2.0 7.0 0.00 0.00 0.00 71 1015.4
20260504193342 64 247 1.0 5.0 0.00 0.00 0.00 73 1015.5
20260504192848 64 228 2.0 7.0 0.00 0.00 0.00 72 1015.5
20260504192344 64 276 2.0 7.0 0.00 0.00 0.00 72 1015.6
20260504191841 64 231 4.0 6.0 0.00 0.00 0.00 72 1015.6
20260504191335 64 70 2.0 6.0 0.00 0.00 0.00 72 1015.7
20260504190854 64 250 2.0 4.0 0.00 0.00 0.00 71 1015.6
20260504190353 63 76 1.0 4.0 0.00 0.00 0.00 74 1015.7
20260504185831 62 300 1.0 6.0 0.00 0.00 0.00 74 1015.8
20260504185348 62 222 3.0 6.0 0.00 0.00 0.00 74 1015.8
20260504184854 62 311 1.0 5.0 0.00 0.00 0.00 74 1015.8
20260504184352 62 247 2.0 5.0 0.00 0.00 0.00 75 1015.8
20260504183910 61 274 1.0 3.0 0.00 0.00 0.00 76 1015.8
20260504183347 61 236 1.0 8.0 0.00 0.00 0.00 76 1015.7
20260504182839 60 219 3.0 8.0 0.00 0.00 0.00 77 1015.7
20260504182340 61 288 2.0 4.0 0.00 0.00 0.00 76 1015.9
20260504181838 60 238 2.0 7.0 0.00 0.00 0.00 78 1015.8
20260504181336 60 212 2.0 7.0 0.00 0.00 0.00 77 1015.7
20260504180832 61 206 1.0 3.0 0.00 0.00 0.00 77 1015.8
20260504180332 61 204 1.0 6.0 0.00 0.00 0.00 76 1015.8
20260504175844 61 219 1.0 6.0 0.00 0.00 0.00 78 1015.7
20260504175343 60 231 1.0 5.0 0.00 0.00 0.00 79 1015.7
20260504174901 60 252 1.0 5.0 0.00 0.00 0.00 78 1015.6
20260504174341 60 226 2.0 6.0 0.00 0.00 0.00 78 1015.6
20260504173837 60 243 2.0 6.0 0.00 0.00 0.00 78 1015.7
20260504173334 60 278 2.0 5.0 0.00 0.00 0.00 78 1015.6
20260504172845 60 219 3.0 4.0 0.00 0.00 0.00 78 1015.6
20260504172350 60 120 1.0 3.0 0.00 0.00 0.00 78 1015.6
20260504171907 60 118 0.0 3.0 0.00 0.00 0.00 78 1015.6
20260504171342 59 237 1.0 3.0 0.00 0.00 0.00 78 1015.7
20260504170848 59 246 0.0 6.0 0.00 0.00 0.00 80 1015.6
20260504170345 58 225 1.0 6.0 0.00 0.00 0.00 81 1015.7
20260504160343 57 226 1.0 4.0 0.00 0.00 0.00 83 1015.7
20260504150844 55 240 2.0 6.0 0.00 0.00 0.00 85 1015.3
20260504150404 55 240 3.0 7.0 0.00 0.00 0.00 84 1015.3
20260504140851 55 237 2.0 5.0 0.00 0.00 0.00 84 1014.7
20260504140409 55 238 2.0 5.0 0.00 0.00 0.00 84 1014.7
20260504130338 54 239 2.0 6.0 0.00 0.00 0.00 86 1013.7
20260504110330 59 258 0.0 1.0 0.00 0.00 0.00 78 1012.1
20260504100343 61 271 0.0 2.0 0.00 0.00 0.00 75 1011.5
20260504081841 64 269 0.0 0.0 0.00 0.00 0.00 73 1010.6
20260504081339 64 261 0.0 0.0 0.00 0.00 0.00 72 1010.6
20260504080836 65 261 0.0 1.0 0.00 0.00 0.00 70 1010.6
20260504080342 65 233 0.0 1.0 0.00 0.00 0.00 68 1010.5
20260504070351 67 274 0.0 0.0 0.00 0.00 0.00 63 1010.0